Location: Zagreb
(45.8000°N, 16.0000°E)
Time: 15:09:51
(UTC+02:00)

Transit 2A - Pass Details

Date: 10 August 2022
Orbit: 601 x 956 km, 66.7° (Epoch: 25 September)

Event Time Altitude Azimuth Distance (km) Brightness Sun altitude
Rises 11:12:47 0° 156° (SSE) 3,181 9.7 52.1°
Reaches altitude 10° 11:17:02 10° 123° (ESE) 2,168 9.2 52.7°
Maximum altitude 11:18:25 11° 106° (ESE) 2,062 9.0 52.8°
Drops below altitude 10° 11:19:48 10° 89° (E) 2,114 8.8 53.0°
Sets 11:23:45 0° 55° (NE) 2,959 9.1 53.5°
